TITAN 3C TRANSTAGE DEB, 27867

Orbit data source: Space-Track

TITAN 3C TRANSTAGE DEB, 27867 is space debris in HEO originally from a launch on Tue, 21 Dec 1965 UTC launched from the Air Force Eastern Test Range (AFETR). Debris objects in space refer to the collection of defunct objects orbiting the Earth. Examples of debris include non-operational satellites, rocket bodies, and fragments generated from explosions, collisions, or faulty payload assembly.

Loading next visibility...
Identifier
27867, 1965-108BN
Orbit
HEO
Country
Flag of USUS
Related business
Manufacturer
Unknown
Mission
Spacecraft
Bus & Motor
Unknown
Mass
Unknown
Launch date (UTC)
1965-12-21 (60 years ago)
Launch vehicle
Unknown
Launch site
Air Force Eastern Test Range (AFETR)
Object type
Payload
Rocket body
Debris
Shape & HBR
Unknown shape, 0.1 m
Radar Cross Section
Medium (>0.1 m² and <1 m²)

Expand to show TLE details & history
Last TLE update: 1 week ago

TLE from 1 week ago
0 TITAN 3C TRANSTAGE DEB
1 27867U 65108BN  26127.39984906 -.00000071  00000-0  00000-0 0  9995
2 27867  26.3165  73.0527 6626941 293.2451 312.4451  2.66925864137536
Epoch: 2026-05-07T09:35Z
TLE epoch observation values (Epoch: 2026-05-07T09:35:46.958Z)
Latitude
6.44913°
Longitude
-129.3867°
Altitude
14,430.963 km
Speed
4.489 km/s
True Right ascension
15h 59m 13s
True Declination
6° 26' 10"
Sunlit
Object was in daylight at epoch
Visualization orbit readout
Latitude
Unknown
Longitude
Unknown
Altitude
Unknown
Speed
Unknown
Apparent Right ascension
Unknown
Apparent Declination
Unknown
Sunlit
N/A
Visualization observer readout
Local Sidereal Time
20:04:37
Azimuth
Unknown
Elevation
Unknown
Doppler factor
Unknown
Orbital elements
Apogee altitude
30,127.002 km
Perigee altitude
1,027.554 km
Semi-major axis
21,955.415 km
Eccentricity
0.66269
Inclination
26.3165°
RAAN
73.0527°
Arg. of periapsis
293.2451°
True anomaly
232.03239°
Mean anomaly
312.4451°
Eccentric anomaly
274.59771°
Mean motion
0.66716 °/min
Orbital period
539.6 mins
BSTAR
0
Loading maneuver chart data...
Computing Atmospheric mass density...

Documentation

Showing up to 5 results
|